Belomorsk, Russia
Current Conditions -  °F | °C
As of 5:00 PM on Saturday 20 Dec 2014 (Local Time) from ULAA Reporting Station
Snow Showers Snow Showers  
Wind Chill: 24°   Ceiling: 800
Heat Index: 30°   Visibility: 6mi
Dew Point: 30°   Wind: 7mph
Humidity: 100%   Direction: 170°S
Pressure: 28.97"   Gusts: 13mph
Location:  64.53°N, 34.77°E
Report Text: ULAA 201400Z 17003G06MPS 130V210 9999 -SHSN OVC008CB M01/M01 Q0981 BECMG 2000 SHSN BKN005CB RMK QFE735/0980 SC037
Loading
Personal Weather Stations






























Interactive Weather Map New forecast layout! Learn more

10-Day Weather Forecast

Advertisements
Track Severe Weather on mobile